Showing default

ZHIHUI TIANWANG-1 01B, 59706

Orbit data source: Space-Track

ZHIHUI TIANWANG-1 01B, 59706 is a Chinese payload satellite in MEO that was launched on Thu, 09 May 2024 UTC via a CHANG ZHENG 3B launch vehicle from the Xichang Space Center, China (XSC). Payload-class satellites include a variety of spacecraft equipped with specific instruments for various scientific and technological missions. These include communications satellites like Starlink; space stations such as the ISS; scientific satellites like the Hubble; Earth observation satellites from companies like Planet Labs, Umbra, and HawkEye 360; GPS; miniature CubeSats for education and research; and military/defense satellites.

Loading next visibility...
Identifier
59706, 2024-087B
Orbit
MEO
Country
Flag of CNCN / PRC
Related business
Manufacturer
SAST
Mission
Operational Commercial Communications
Bus & Motor
ZHTW, LAE?
Mass
~2,000 kg wet, ~2,000 kg dry
Launch date (UTC)
2024-05-09 (2 years ago)
Launch vehicle
CHANG ZHENG 3B
Launch site
Xichang Space Center, China (XSC)
Object type
Payload
Rocket body
Debris
Shape & HBR
Box + 2 Pan, 10.0 m
Radar Cross Section
17.671 m²

Expand to show TLE details & history
Last TLE update: 2 days ago

TLE from 2 days ago
0 ZHIHUI TIANWANG-1 01B
1 59706U 24087B   26171.12392524  .00000065  00000-0  00000+0 0  9993
2 59706  53.1283 170.4587 0026506 207.4917 152.3717  2.00562759 15011
Epoch: 2026-06-20T02:58Z
TLE epoch observation values (Epoch: 2026-06-20T02:58:27.140Z)
Latitude
-0.00005°
Longitude
-142.50149°
Altitude
20,244.911 km
Speed
3.865 km/s
True Right ascension
11h 21m 49s
True Declination
0° 00' 00"
Sunlit
Object was in daylight at epoch
Visualization orbit readout
Latitude
Unknown
Longitude
Unknown
Altitude
Unknown
Speed
Unknown
Apparent Right ascension
Unknown
Apparent Declination
Unknown
Sunlit
N/A
Visualization observer readout
Local Sidereal Time
21:27:51
Azimuth
Unknown
Elevation
Unknown
Doppler factor
Unknown
Orbital elements
Apogee altitude
20,252.769 km
Perigee altitude
20,111.967 km
Semi-major axis
26,560.505 km
Eccentricity
0.00265
Inclination
53.1283°
RAAN
170.4587°
Arg. of periapsis
207.4917°
True anomaly
152.51214°
Mean anomaly
152.3717°
Eccentric anomaly
152.44196°
Mean motion
0.50141 °/min
Orbital period
717.98 mins
BSTAR
0
Loading maneuver chart data...
Computing Atmospheric mass density...
Loading historical data...
Loading historical data...
Loading historical data...
Loading historical data...
Loading historical data...
Loading historical data...
Loading historical data...
Other satellites on launch #87 in the year 2024 (2024-05-09 UTC)

Documentation

Showing up to 5 results
|